Campo, CA

12:55 AM PDT on October 14, 2019 (GMT -0700)
Campo

Weather History for KCZZ - August, 2019

Change the Weather History Date:

Wednesday, August 14, 2019

  Actual Average Record
Temperature  
Mean Temperature 79 °F 74 °F  
Max Temperature 101 °F 95 °F 106 °F (1962)
Min Temperature 56 °F 53 °F 36 °F (1954)
Degree Days  
Heating Degree Days 0 0  
Month to date heating degree days 0 0  
Since 1 June heating degree days 42 63  
Since 1 July heating degree days 6 7  
Cooling Degree Days 14 9  
Month to date cooling degree days 150 126  
Year to date cooling degree days 478 498  
Since 1 June cooling degree days 476 468  
Growing Degree Days 28 (Base 50)    
Moisture  
Dew Point 39 °F    
Average Humidity 31    
Maximum Humidity 52    
Minimum Humidity 10    
Precipitation  
Precipitation 0.00 in 0.03 in 0.39 in (1983)
Month to date precipitation 0.00 0.33  
Year to date precipitation 12.82 10.80  
Sea Level Pressure  
Sea Level Pressure 29.91 in    
Wind  
Wind Speed 8 mph (NE)    
Max Wind Speed 18 mph    
Max Gust Speed 23 mph    
T = Trace of Precipitation, MM = Missing Value Source: NWS Daily Summary

Daily Weather History Graph

Daily Weather History Graph

Search for Another Location

Airport or City:

Astronomy

Aug. 14, 2019 Rise Set
Actual Time 6:08 AM PDT 7:31 PM PDT
Civil Twilight 5:42 AM PDT 7:57 PM PDT
Nautical Twilight 5:11 AM PDT 8:28 PM PDT
Astronomical Twilight 4:39 AM PDT 9:01 PM PDT
Moon 7:24 PM PDT 5:15 AM PDT
Length of Visible Light 14h 15m
Length of Day
13h 23m
Full, 100% of the Moon is Illuminated
Aug 14
Full
Aug 15
Full
Aug 23
Last Quarter
Aug 30
New
Sep 5
First Quarter

Hourly Weather History & Observations

Time (PDT) Temp. Dew Point Humidity Pressure Visibility Wind Dir Wind Speed Gust Speed Precip Events Conditions
12:52 AM 63.0 °F 45.0 °F 52% 29.92 in - NE 4.6 mph - N/A   Unknown
1:52 AM 62.1 °F 39.9 °F 44% 29.91 in - NE 5.8 mph - N/A   Unknown
2:52 AM 59.0 °F 37.9 °F 46% 29.91 in - ENE 8.1 mph - N/A   Unknown
3:52 AM 59.0 °F 35.1 °F 41% 29.91 in - NE 6.9 mph - N/A   Unknown
4:52 AM 57.0 °F 34.0 °F 42% 29.91 in - ENE 8.1 mph - N/A   Unknown
5:52 AM 57.0 °F 33.1 °F 40% 29.92 in - ENE 8.1 mph - N/A   Unknown
6:52 AM 61.0 °F 32.0 °F 34% 29.94 in - NE 5.8 mph - N/A   Unknown
7:52 AM 73.0 °F 34.0 °F 24% 29.93 in - NE 5.8 mph - N/A   Unknown
8:52 AM 86.0 °F 35.1 °F 16% 29.92 in - Calm Calm - N/A   Unknown
9:52 AM 91.9 °F 30.9 °F 11% 29.92 in - Calm Calm - N/A   Unknown
10:52 AM 97.0 °F 32.0 °F 10% 29.92 in - SSW 10.4 mph - N/A   Unknown
11:52 AM 99.0 °F 35.1 °F 11% 29.91 in - SW 10.4 mph - N/A   Unknown
12:52 PM 99.0 °F 34.0 °F 10% 29.90 in - SW 9.2 mph - N/A   Unknown
1:52 PM 99.0 °F 36.0 °F 11% 29.89 in - SW 10.4 mph 18.4 mph N/A   Unknown
2:52 PM 100.0 °F 41.0 °F 13% 29.88 in - SW 18.4 mph 23.0 mph N/A   Unknown
3:52 PM 99.0 °F 41.0 °F 14% 29.88 in - WSW 11.5 mph - N/A   Unknown
4:52 PM 97.0 °F 41.0 °F 14% 29.88 in - West 13.8 mph - N/A   Unknown
5:52 PM 91.0 °F 48.0 °F 23% 29.88 in - WSW 12.7 mph - N/A   Unknown
6:52 PM 89.1 °F 48.0 °F 24% 29.88 in - SW 9.2 mph - N/A   Unknown
7:52 PM 80.1 °F 48.9 °F 34% 29.89 in - SSW 9.2 mph - N/A   Unknown
8:52 PM 75.9 °F 48.9 °F 38% 29.90 in - Calm Calm - N/A   Unknown
9:52 PM 70.0 °F 46.0 °F 42% 29.92 in - NE 4.6 mph - N/A   Unknown
10:52 PM 66.9 °F 45.0 °F 45% 29.92 in - NE 5.8 mph - N/A   Unknown
11:52 PM 62.1 °F 43.0 °F 50% 29.92 in - NNE 4.6 mph - N/A   Unknown